Погода в Рогозове

Украина / Киевская область     50°14′08″N   31°03′01″E
темп.,
°C
ветер,
м/с
пор.,
м/с
влажн.,
%
обл.,
%
осадки,
мм/ч
давл.,
гПа
погр.,
м
20 июня, вс
вс2000:00+21в5138412 0.0 1018508
03:00+19всв4109583 0.0 1018260
06:00+19всв51291100 0.0 1016338
09:00+23в7137158 0.0 1016607
12:00+26в8105837 0.0 1016973
15:00+26в8105827 0.0 10161278
18:00+26в81169100 0.0 10151098
21:00+22в5118620 0.0 1015375
21 июня, пн
пн2100:00+19в411905 0.0 1014299
03:00+17всв3893100 0.0 1014195
06:00+18всв379218 0.0 1013208
09:00+22в45730 0.0 1013492
12:00+26вюв44635 0.0 1012940
15:00+28юв446014 0.0 10121317
18:00+27юв34645 0.0 10121214
21:00+23юв33815 0.0 101337
22 июня, вт
вт2200:00+21вюв34925 0.0 101373
03:00+20вюв339197 0.0 101344
06:00+20всв348973 0.0 101492
09:00+24всв45678 0.0 1014366
12:00+27в565328 0.0 1014796
15:00+28в6750100 0.0 10141123
18:00+27вюв476241 0.0 1014933
21:00+22в34815 0.0 101460
23 июня, ср
ср2300:00+20в378443 0.0 1015117
03:00+19всв228984 0.0 101520
06:00+20ссв2388100 0.0 101461
09:00+25всв467299 0.0 1015360
12:00+29в6856100 0.0 1015840
15:00+29в675578 0.0 10151149
18:00+28вюв5768100 0.0 10151219
21:00+24вюв388594 0.3 1016165
24 июня, чт
чт2400:00+22вюв228665 0.0 101724
03:00+20в229398 0.0 101732
06:00+20всв248991 0.0 101774
09:00+26всв467386 0.0 1017423
12:00+30в565414 0.0 10161045
15:00+31вюв574612 0.0 10161467
18:00+30в47565 0.0 1016945
21:00+24вюв49750 0.0 1015170